Address 0x3ccc7be5bf42aea1fe07061929e6d4260acb418f

 
Txn Hash
Block
From
To
Value [Txn Fee]
0xae06a07d1371d4648c51d5bfb32416da934fbca57841752884e814b97e4cd9c482946412021-06-14 16:31:074 days 1 hr ago0x3ccc7be5bf42aea1fe07061929e6d4260acb418fOUT 0x47e58c0c3ab8f9db26d89266a9f4fc8a3eb55e470 BNB0.000376925
0x63abbf8e84a7412548a8512f82ad4e3e64ec80f001a6bc19eec01d4a2857355a82932812021-06-14 15:23:054 days 3 hrs ago0x3ccc7be5bf42aea1fe07061929e6d4260acb418fOUT 0xf62723f8b7bf9962d9577f099e7bb1bdf97156100 BNB0.000362515
0xbb62c3505728042011b22cf8ce599bf4c6aeb5d58f411fb9aa398732a3c67e6a82918992021-06-14 14:13:434 days 4 hrs ago0x3ccc7be5bf42aea1fe07061929e6d4260acb418fOUT 0x1fa268d4d9c7ec8d0e1b259258ad717cecf6f1230 BNB0.00098215
0xb840d4903784a9ca2b73de6634b780f3144285dfd9af1e080639630dcdfe74df82917742021-06-14 14:07:284 days 4 hrs ago0x3ccc7be5bf42aea1fe07061929e6d4260acb418fOUT 0x7895b3de4169635da889ca842740748136ac7b110 BNB0.000378325
0xb55c5dd8aacbde27cfecf699e55abecf5c565e44820603e17a8b7902acc986b682809752021-06-14 5:00:184 days 13 hrs ago0x3ccc7be5bf42aea1fe07061929e6d4260acb418fOUT 0x2d2bb6cc040010583f16bb1c5afee129ed13b5320 BNB0.000362515
0xf6b7d206e3528b9c113e927ce549fca5d55f0eb86df7fcd551c6edb236469b7f82807502021-06-14 4:49:024 days 13 hrs ago0x3ccc7be5bf42aea1fe07061929e6d4260acb418fOUT Shiba Inu Gold: SHIBG Token0 BNB0.000378325
0x9242a9a15881740377b8d6c5835580573661a2f7131495cd41a256bb97e8f21082806152021-06-14 4:42:174 days 13 hrs ago0x3ccc7be5bf42aea1fe07061929e6d4260acb418fOUT 0xa1fd12820f0c1c492dd87f8a0d12043d8f24f8a60 BNB0.000378325
0xdfd0579aaea24a0952eddb40a4054042a26e7be3bae1281c212da30aa1cdc2f282661722021-06-13 16:28:345 days 1 hr ago0x3ccc7be5bf42aea1fe07061929e6d4260acb418fOUT 0xd983a29d0e966a3c51b540085314057d3bb4a2270 BNB0.00036861
0xa7dfe526230eb7e4b0b3a8888a96f6c78371f5c2f55f5f37ee4fbc87aa6130e482643312021-06-13 14:55:485 days 3 hrs ago0x3ccc7be5bf42aea1fe07061929e6d4260acb418fOUT 0x1d7f64a6566b38c26c075bd7463597fcd8d80e170 BNB0.00080266
0xd245a423a6f5d835942f41a7a0e30c470ff03c0e1786515efeffc7cbeaa6da1182586852021-06-13 10:11:085 days 8 hrs ago0x3ccc7be5bf42aea1fe07061929e6d4260acb418fOUT 0xbcbcd3fdc07d496d1145f41a65a3e957efed99460 BNB0.000378325
0xd7161688e11a67c335873f1f84873eabe1d7dff2799b47511604ed281b1a1ce182581872021-06-13 9:45:265 days 8 hrs ago0x3ccc7be5bf42aea1fe07061929e6d4260acb418fOUT 0xcd035c0c9f68392b88ddc127f7aad39d5f39cee60 BNB0.000400795
0xa6e7a86172eeaf964fbaf540123e8d92140efd7ad22c13610dddd88ebcaac73e82574862021-06-13 9:10:055 days 9 hrs ago0x3ccc7be5bf42aea1fe07061929e6d4260acb418fOUT 0xa202bcf4afe788232d83c18f4d46f30f2c4e67be0 BNB0.00126335
0xc237be88b06decfa3ab1aba4f2ce09d14f140be4bfba2c88685d05cdbd79b80482516952021-06-13 4:17:275 days 14 hrs ago0x3ccc7be5bf42aea1fe07061929e6d4260acb418fOUT 0x3a3d9756019fe9de2a0acf115a15a26d34fb28180 BNB0.000378325
0xb776539b87cca6dcd6e4b586a20890037df71c6c7e4bfe4c435163186b875f1682229742021-06-12 4:13:506 days 14 hrs ago0x3ccc7be5bf42aea1fe07061929e6d4260acb418fOUT 0xd3abd3fdc3463f3a82c80adc581da2432e42c2150 BNB0.00023829
0xd3f629371d0f2b5018dbdba81add664379a6758ede0591d33b3ee098307c35ce82229642021-06-12 4:13:206 days 14 hrs ago0x3ccc7be5bf42aea1fe07061929e6d4260acb418fOUT 0xd3abd3fdc3463f3a82c80adc581da2432e42c2150 BNB0.00023829
0x02040ea03c800e9281a538e93b30a764bbee64f800fa713e79738f05b2eefdb082229432021-06-12 4:12:176 days 14 hrs ago0x3ccc7be5bf42aea1fe07061929e6d4260acb418fOUT 0xd3abd3fdc3463f3a82c80adc581da2432e42c2150 BNB0.00023829
0x27a055dba98dd62870ba132f5fe5f070e0f92c162425627dcb5d83de1d6681f782229312021-06-12 4:11:416 days 14 hrs ago0x3ccc7be5bf42aea1fe07061929e6d4260acb418fOUT 0xd3abd3fdc3463f3a82c80adc581da2432e42c2150 BNB0.00023829
0x4fe1115c8ce8fd8944a535a29582c32b08bc79571ba13d1d1029fecf486a3df381945832021-06-11 4:29:107 days 13 hrs ago0x3ccc7be5bf42aea1fe07061929e6d4260acb418fOUT HashPanda: PANDA Token0 BNB0.000105275
0x4ad1310c05bf0329138c37ec2f54e55762b87dc4f16c795b67c04cdff5f6f5d081940982021-06-11 4:04:557 days 14 hrs ago0x3ccc7be5bf42aea1fe07061929e6d4260acb418fOUT 0x23481f4d3ac4642d2f45d014a514b45b0338b9270 BNB0.00031573
0xe8b08b434de438ced988036883dd970f966add8db08717f5ba19d31dc4dc88bd81649382021-06-10 3:40:038 days 14 hrs ago0x3ccc7be5bf42aea1fe07061929e6d4260acb418fOUT 0x3e532b4266a779de401297336d8de6dd099745a90 BNB0.00088182
0x190e1b00666996f25858e80d2a12fa23c1c0193d0e3bfadf7f00ab55c8e3e63c81649312021-06-10 3:39:428 days 14 hrs ago0x3ccc7be5bf42aea1fe07061929e6d4260acb418fOUT Infinitee Finance: INFTEE Token0 BNB0.000221285
0xd18d7e9643ae8e55e86323d98e462b3fadb7587cbdb478e3a03ed3f0d9ced88a79899912021-06-04 1:34:0114 days 16 hrs ago0x3ccc7be5bf42aea1fe07061929e6d4260acb418fOUT PancakeSwap: Router v20.011 BNB0.0008058
0xfbc5ecefeb058ff0b867295fe125870ae094f1b384a4229adb88fec07c75ac9279899452021-06-04 1:31:2714 days 16 hrs ago0x3ccc7be5bf42aea1fe07061929e6d4260acb418fOUT PancakeSwap: Router v20.0111 BNB0.000966
0x9874fd5b61e2b6a4a70b4f2a0e167a139eae078f8250d1176deac07008173cb079889322021-06-04 0:39:0514 days 17 hrs ago0x3ccc7be5bf42aea1fe07061929e6d4260acb418fOUT PancakeSwap: Router v20.011 BNB0.00067194
0x420697ffff5aa26984c2cc96d88a0f9bad0e3deba8343747590e74a72b87313279888232021-06-04 0:33:3814 days 17 hrs ago0x3ccc7be5bf42aea1fe07061929e6d4260acb418fOUT 0xd3abd3fdc3463f3a82c80adc581da2432e42c2150 BNB0.00031329
[ Download CSV Export 
Parent Txn Hash Block From To Value
Loading

Contract Name:
0 BNB

Compiler Version
0

Optimization Enabled:
0 BNB

Other Settings:
-NA-
Block Transaction Gas Used Reward
Age Block Fee Address BC Fee Address Voting Power Jailed Incoming
Block Uncle Number Difficulty Gas Used Reward
Loading
Loading
Make sure to use the "Vote Down" button for any spammy posts, and the "Vote Up" for interesting conversations.